CW6538 Cattolica IT current weather conditions

sailwx.info

Wind from 265 at 2 knots gusting 6

Air temperature 20.0° C
Dewpoint 12.2° C

Last reported at 2017-Jul-26 06:09 UTC.
Time now 2017-Jul-26 06:35 UTC

Location: N 43°58' E 012°44'.
View on Google Maps.

See reports from other nearby stations

  
Tides and Currents Weather Stations Pressure Air Temp Water Temp Dewpoint Dewpoint Depression Visibility Wind Speed Wind Dir Waves Ship Positions
date/time (UTC)wind fromknots sea level pressurealtimeterstation pressurevisibilityair tempwater tempwave heightnotes
2017-Jul-26 06:09 265 2 gusting 6 20.0
2017-Jul-26 06:03 268 1 gusting 5 20.0
2017-Jul-26 05:58 219 0 gusting 5 19.4
2017-Jul-26 05:53 183 19.4
2017-Jul-26 05:48 183 19.4
2017-Jul-26 05:44 183 18.9
2017-Jul-26 05:39 183 2 gusting 4 18.9
2017-Jul-26 05:28 183 1 gusting 4 18.9
2017-Jul-26 05:24 183 2 gusting 4 18.3
2017-Jul-26 05:19 188 1 gusting 6 18.3
2017-Jul-26 05:13 188 3 gusting 6 18.3
2017-Jul-26 05:08 184 0 gusting 4 17.8
2017-Jul-26 05:03 186 0 gusting 4 17.8
2017-Jul-26 04:58 186 0 gusting 5 17.8
2017-Jul-26 04:54 186 3 gusting 5 17.8
2017-Jul-26 04:48 186 0 gusting 4 17.8
2017-Jul-26 04:39 186 3 gusting 5 17.8
2017-Jul-26 04:34 186 3 gusting 5 17.8
2017-Jul-26 04:23 196 2 gusting 5 17.8
2017-Jul-26 04:19 196 2 gusting 5 17.8
2017-Jul-26 04:13 175 4 gusting 5 17.8
2017-Jul-26 04:09 150 3 gusting 5 17.8
2017-Jul-26 04:03 141 4 gusting 5 17.8
2017-Jul-26 03:59 182 1 gusting 4 17.8
2017-Jul-26 03:49 182 2 gusting 4 17.8
2017-Jul-26 03:43 182 2 gusting 4 18.3
2017-Jul-26 03:39 182 1 gusting 3 18.3
2017-Jul-26 03:33 182 1 gusting 5 18.3
2017-Jul-26 03:29 182 3 gusting 5 18.3
2017-Jul-26 03:23 182 4 gusting 6 18.3
2017-Jul-26 03:19 182 4 gusting 6 18.3
2017-Jul-26 03:13 182 3 gusting 5 18.9
2017-Jul-26 03:08 182 4 gusting 5 18.9
2017-Jul-26 03:04 194 4 gusting 5 18.9
2017-Jul-26 02:58 194 4 gusting 5 18.9
2017-Jul-26 02:53 194 3 gusting 5 18.9
2017-Jul-26 02:49 194 3 gusting 6 18.9
2017-Jul-26 02:43 196 4 gusting 6 18.9
2017-Jul-26 02:38 184 3 gusting 5 18.9
2017-Jul-26 02:34 168 3 gusting 5 18.9
2017-Jul-26 02:28 165 4 gusting 5 18.9
2017-Jul-26 02:23 186 3 gusting 4 18.9
2017-Jul-26 02:13 186 4 gusting 5 18.9
2017-Jul-26 02:09 182 4 gusting 6 18.9
2017-Jul-26 02:04 173 3 gusting 6 18.9
2017-Jul-26 01:58 164 4 gusting 6 18.9
2017-Jul-26 01:48 174 4 gusting 6 19.4
2017-Jul-26 01:44 168 5 gusting 6 19.4
2017-Jul-26 01:38 153 4 gusting 7 19.4
2017-Jul-26 01:33 159 4 gusting 7 19.4
2017-Jul-26 01:28 161 5 gusting 6 19.4
2017-Jul-26 01:24 158 4 gusting 6 19.4
2017-Jul-26 01:18 143 3 gusting 6 20.0
2017-Jul-26 01:13 174 4 gusting 6 20.0
2017-Jul-26 01:09 185 4 gusting 6 20.0
2017-Jul-26 01:03 188 4 gusting 8 20.0
2017-Jul-26 00:59 190 6 gusting 10 20.0
2017-Jul-26 00:53 211 6 gusting 10 20.0
2017-Jul-26 00:49 189 6 gusting 8 20.0
2017-Jul-26 00:43 198 4 gusting 7 20.0
2017-Jul-26 00:33 213 4 gusting 8 20.0
2017-Jul-26 00:29 201 6 gusting 8 20.0
2017-Jul-26 00:23 196 5 gusting 8 20.0
2017-Jul-26 00:13 177 6 gusting 10 20.0
2017-Jul-26 00:09 209 5 gusting 13 20.0
2017-Jul-26 00:03 205 6 gusting 11 20.0
2017-Jul-25 23:59 188 4 gusting 11 20.0
2017-Jul-25 23:48 180 6 gusting 9 19.4
2017-Jul-25 23:38 211 6 gusting 9 19.4
2017-Jul-25 23:14 178 6 19.4
2017-Jul-25 23:08 171 6 gusting 11 19.4
2017-Jul-25 23:04 190 6 gusting 11 19.4
2017-Jul-25 22:58 203 5 gusting 8 19.4
2017-Jul-25 22:53 211 5 gusting 6 19.4
2017-Jul-25 22:49 170 5 gusting 7 19.4
2017-Jul-25 22:38 185 6 gusting 13 19.4
2017-Jul-25 22:34 193 5 gusting 13 18.9
2017-Jul-25 22:28 177 7 gusting 11 18.9
2017-Jul-25 22:24 203 7 gusting 11 18.9
2017-Jul-25 22:18 178 6 gusting 10 18.9
2017-Jul-25 22:14 195 5 gusting 9 18.9
2017-Jul-25 22:08 215 6 gusting 7 18.9
2017-Jul-25 22:03 186 3 gusting 8 18.9
2017-Jul-25 21:59 217 5 gusting 9 18.9
2017-Jul-25 21:49 211 6 gusting 9 19.4
2017-Jul-25 21:43 178 3 gusting 7 19.4
2017-Jul-25 21:34 203 6 gusting 8 19.4
2017-Jul-25 21:29 220 6 gusting 9 20.0
2017-Jul-25 21:23 200 4 gusting 9 20.0
2017-Jul-25 21:19 197 5 gusting 9 20.0
2017-Jul-25 21:14 216 5 gusting 8 20.0
2017-Jul-25 21:09 182 6 20.0
2017-Jul-25 21:04 194 6 gusting 10 20.0
2017-Jul-25 20:58 214 6 gusting 10 20.6
2017-Jul-25 20:54 213 6 gusting 10 20.6
2017-Jul-25 20:48 119 5 gusting 13 20.6
2017-Jul-25 20:43 102 8 gusting 16 20.0
2017-Jul-25 20:39 097 10 gusting 23 20.0
2017-Jul-25 20:34 098 10 gusting 23 20.6
2017-Jul-25 20:28 101 8 gusting 15 20.6
2017-Jul-25 20:24 036 8 gusting 18 20.0
2017-Jul-25 20:18 111 8 gusting 22 20.0
2017-Jul-25 20:13 052 13 gusting 26 20.0
2017-Jul-25 20:09 036 13 gusting 27 20.0
2017-Jul-25 20:03 346 17 19.4
2017-Jul-25 19:58 355 19 gusting 29 19.4
2017-Jul-25 19:53 032 10 gusting 21 20.0
2017-Jul-25 19:49 309 8 gusting 30 20.0
2017-Jul-25 19:44 333 17 gusting 33 20.0
2017-Jul-25 19:38 355 19 gusting 33 20.6
2017-Jul-25 19:34 005 22 gusting 33 21.1
2017-Jul-25 19:24 328 12 gusting 25 23.9
2017-Jul-25 19:19 289 2 gusting 6 24.4
2017-Jul-25 19:14 193 3 gusting 4 24.4
2017-Jul-25 19:08 193 2 gusting 4 24.4
2017-Jul-25 19:04 193 2 gusting 4 25.0
2017-Jul-25 18:58 193 1 gusting 2 25.0
2017-Jul-25 18:53 193 1 gusting 4 25.0
2017-Jul-25 18:49 193 2 gusting 4 25.0
2017-Jul-25 18:43 193 2 gusting 3 25.0
2017-Jul-25 18:38 193 0 gusting 3 25.6
2017-Jul-25 18:34 193 25.6
2017-Jul-25 18:28 193 25.6
2017-Jul-25 18:24 193 0 gusting 3 25.6
2017-Jul-25 18:14 193 25.6
2017-Jul-25 18:08 193 2 gusting 6 26.1
2017-Jul-25 18:04 195 2 gusting 6 26.1
2017-Jul-25 17:59 189 2 gusting 6 26.1
2017-Jul-25 17:53 182 3 gusting 6 26.1
2017-Jul-25 17:48 211 4 gusting 7 26.1
2017-Jul-25 17:44 170 2 gusting 7 26.1
2017-Jul-25 17:38 206 4 gusting 8 26.1
2017-Jul-25 17:33 213 5 gusting 8 26.1
2017-Jul-25 17:28 215 5 gusting 7 26.1
2017-Jul-25 17:24 194 5 26.1
2017-Jul-25 17:18 199 5 gusting 8 26.1
2017-Jul-25 17:13 197 4 gusting 7 26.1
2017-Jul-25 17:08 223 5 gusting 7 26.1
2017-Jul-25 17:03 215 4 gusting 7 26.1
2017-Jul-25 16:59 217 6 gusting 10 26.1
2017-Jul-25 16:54 159 6 gusting 10 26.1
2017-Jul-25 16:48 185 5 gusting 11 26.1
2017-Jul-25 16:39 214 6 gusting 10 26.1
2017-Jul-25 16:34 188 5 gusting 8 26.1
2017-Jul-25 16:29 171 6 gusting 9 26.1
2017-Jul-25 16:23 227 5 gusting 11 26.1
2017-Jul-25 16:19 184 6 gusting 11 26.1
2017-Jul-25 16:13 165 6 gusting 10 26.1
2017-Jul-25 16:04 206 3 gusting 8 26.1
2017-Jul-25 15:59 211 4 gusting 9 26.1
2017-Jul-25 15:54 223 6 gusting 9 26.1
2017-Jul-25 15:48 189 5 gusting 7 26.1
2017-Jul-25 15:43 177 3 gusting 8 26.1
2017-Jul-25 15:38 134 6 gusting 8 26.1
2017-Jul-25 15:34 126 5 gusting 8 26.1
2017-Jul-25 15:29 130 5 gusting 8 26.1
2017-Jul-25 15:23 111 5 gusting 8 26.1
2017-Jul-25 15:19 113 4 gusting 9 26.1
2017-Jul-25 15:13 130 4 gusting 9 26.1
2017-Jul-25 15:09 140 5 gusting 8 26.1
2017-Jul-25 15:03 099 6 gusting 8 26.7
2017-Jul-25 14:58 095 6 gusting 9 26.7
2017-Jul-25 14:54 079 6 26.7
2017-Jul-25 14:43 051 6 gusting 13 27.2
2017-Jul-25 14:38 056 8 gusting 13 26.7
2017-Jul-25 14:28 038 6 gusting 13 26.7
2017-Jul-25 14:23 069 6 gusting 11 26.7
2017-Jul-25 14:19 053 8 gusting 11 27.2
2017-Jul-25 14:14 082 6 gusting 11 26.7
2017-Jul-25 14:08 055 2 gusting 8 26.7
2017-Jul-25 14:03 123 0 gusting 6 26.7
2017-Jul-25 13:59 191 3 gusting 6 26.7
2017-Jul-25 13:49 065 4 gusting 6 26.1
2017-Jul-25 13:43 066 4 gusting 7 26.1
2017-Jul-25 13:38 131 4 gusting 6 25.6
2017-Jul-25 13:33 116 5 gusting 6 25.6
2017-Jul-25 13:29 066 1 gusting 6 25.6
2017-Jul-25 13:23 106 3 gusting 6 25.6
2017-Jul-25 13:19 093 1 gusting 6 25.0
2017-Jul-25 13:09 119 3 gusting 6 25.6
2017-Jul-25 13:04 186 4 gusting 6 25.0
2017-Jul-25 12:58 072 4 gusting 6 25.0
2017-Jul-25 12:48 087 3 gusting 6 25.0
2017-Jul-25 12:43 120 3 gusting 6 25.0
2017-Jul-25 12:38 094 2 gusting 6 25.0
2017-Jul-25 12:34 138 4 gusting 6 25.0
2017-Jul-25 12:28 104 2 gusting 5 25.0
2017-Jul-25 12:23 076 2 gusting 4 25.0
2017-Jul-25 12:18 076 2 gusting 5 25.0
2017-Jul-25 12:13 076 2 gusting 6 25.0
2017-Jul-25 12:08 113 3 gusting 6 25.0
2017-Jul-25 12:03 073 4 gusting 6 25.6
2017-Jul-25 11:58 074 284 gusting 284 25.6
2017-Jul-25 11:54 051 4 gusting 6 25.6
2017-Jul-25 11:48 067 1 gusting 8 25.6
2017-Jul-25 11:43 063 4 gusting 9 25.6
2017-Jul-25 11:34 081 2 gusting 8 25.6
2017-Jul-25 11:29 116 5 gusting 7 26.1
2017-Jul-25 11:23 078 3 gusting 7 26.1
2017-Jul-25 11:18 106 3 gusting 10 26.7
2017-Jul-25 11:13 111 3 gusting 10 26.7
2017-Jul-25 11:09 064 5 gusting 8 27.2
2017-Jul-25 11:03 052 4 gusting 9 27.2
2017-Jul-25 10:58 060 5 gusting 9 27.8
2017-Jul-25 10:49 005 6 gusting 10 27.8
2017-Jul-25 10:43 022 4 gusting 10 27.8
2017-Jul-25 10:33 030 6 gusting 10 27.8
2017-Jul-25 10:29 033 6 gusting 10 27.8
2017-Jul-25 10:23 010 6 gusting 10 27.8
2017-Jul-25 10:18 355 5 gusting 8 27.8
2017-Jul-25 10:09 028 6 gusting 12 27.8
2017-Jul-25 10:03 034 6 gusting 12 27.8
2017-Jul-25 09:59 360 6 gusting 12 27.8
2017-Jul-25 09:54 348 7 gusting 11 27.8
2017-Jul-25 09:49 350 6 gusting 10 27.8
2017-Jul-25 09:44 036 6 gusting 11 27.2
2017-Jul-25 09:38 355 8 gusting 12 27.2
2017-Jul-25 09:34 360 6 gusting 11 27.2
2017-Jul-25 09:28 009 6 gusting 11 27.2
2017-Jul-25 09:23 360 6 gusting 11 27.2
2017-Jul-25 09:14 013 6 gusting 11 27.2
2017-Jul-25 09:08 005 6 gusting 10 26.7
2017-Jul-25 09:04 012 5 gusting 10 26.7
2017-Jul-25 08:58 005 6 gusting 10 26.7
2017-Jul-25 08:54 019 6 gusting 11 26.7
2017-Jul-25 08:48 360 6 gusting 11 26.7
2017-Jul-25 08:44 005 7 gusting 9 26.1
2017-Jul-25 08:38 319 6 gusting 11 26.1
2017-Jul-25 08:29 340 6 gusting 10 26.1
2017-Jul-25 08:13 346 5 gusting 9 25.0
2017-Jul-25 07:59 325 6 gusting 9 25.0
2017-Jul-25 07:54 329 4 gusting 9 25.6
2017-Jul-25 07:49 342 4 gusting 7 25.0
2017-Jul-25 07:19 360 4 gusting 7 25.0
2017-Jul-25 07:13 005 5 gusting 6 25.0
2017-Jul-25 07:08 327 4 gusting 6 25.0
2017-Jul-25 06:58 324 4 gusting 7 24.4
2017-Jul-25 06:53 338 1 gusting 7 24.4
2017-Jul-25 06:48 289 4 gusting 7 24.4
2017-Jul-25 06:39 317 3 gusting 8 24.4
2017-Jul-25 06:28 288 6 gusting 8 23.9
2017-Jul-25 06:24 310 5 gusting 7 23.9
2017-Jul-25 06:14 338 284 gusting 284 23.9
2017-Jul-25 06:04 344 4 gusting 7 23.3
2017-Jul-25 05:54 279 4 gusting 6 23.3
2017-Jul-25 05:49 295 2 gusting 6 23.3
2017-Jul-25 05:43 313 3 gusting 6 22.8
2017-Jul-25 05:39 287 3 gusting 6 22.8
2017-Jul-25 05:33 323 22.8
2017-Jul-25 05:29 326 3 gusting 5 22.8
2017-Jul-25 05:24 229 22.2
2017-Jul-25 05:19 229 2 gusting 4 22.2
2017-Jul-25 05:13 207 22.2
2017-Jul-25 05:08 207 22.2
2017-Jul-25 05:04 207 0 gusting 5 22.2
2017-Jul-25 04:58 207 0 gusting 5 21.7
2017-Jul-25 04:53 207 21.7
2017-Jul-25 04:49 207 1 gusting 1 21.7
2017-Jul-25 04:38 207 21.7
2017-Jul-25 04:34 207 21.7
2017-Jul-25 04:28 207 21.7
2017-Jul-25 04:23 207 21.7
2017-Jul-25 04:18 207 21.7
2017-Jul-25 04:08 207 21.7
2017-Jul-25 04:04 208 0 gusting 4 21.7
2017-Jul-25 03:59 207 0 gusting 3 21.7
2017-Jul-25 03:54 208 21.7
2017-Jul-25 03:48 207 21.7
2017-Jul-25 03:44 207 1 gusting 3 21.7
2017-Jul-25 03:38 207 1 gusting 3 21.7
2017-Jul-25 03:33 207 1 gusting 3 21.7
2017-Jul-25 03:29 207 21.7
2017-Jul-25 03:19 208 21.7
2017-Jul-25 03:13 208 1 gusting 4 21.7
2017-Jul-25 03:09 208 21.7
2017-Jul-25 03:03 207 1 gusting 4 21.7
2017-Jul-25 02:59 208 0 gusting 5 21.7
2017-Jul-25 02:53 207 21.1
2017-Jul-25 02:49 207 2 gusting 5 21.1
2017-Jul-25 02:43 207 1 gusting 5 21.1
2017-Jul-25 02:38 207 0 gusting 4 21.1
2017-Jul-25 02:33 207 1 gusting 4 21.1
2017-Jul-25 02:28 207 2 gusting 4 21.1
2017-Jul-25 02:18 207 21.1
2017-Jul-25 02:14 207 21.1
2017-Jul-25 02:08 207 21.1
2017-Jul-25 02:04 207 1 gusting 4 21.1
2017-Jul-25 01:58 207 2 gusting 4 21.7
2017-Jul-25 01:53 207 3 gusting 4 21.7
2017-Jul-25 01:48 207 1 gusting 5 21.7
2017-Jul-25 01:38 209 2 gusting 4 21.7
2017-Jul-25 01:33 213 2 gusting 4 21.7
2017-Jul-25 01:28 268 1 gusting 4 21.7
2017-Jul-25 01:23 269 2 gusting 4 21.7
2017-Jul-25 01:19 269 2 gusting 5 21.7
2017-Jul-25 01:13 238 3 gusting 5 21.1
2017-Jul-25 01:08 238 284 gusting 284 21.1
2017-Jul-25 01:03 240 2 gusting 5 21.1
2017-Jul-25 00:58 236 3 gusting 6 21.1
2017-Jul-25 00:54 247 3 gusting 6 21.1
2017-Jul-25 00:19 211 1 gusting 4 21.1
2017-Jul-25 00:08 211 2 gusting 4 21.1
2017-Jul-25 00:04 211 2 gusting 5 21.1
2017-Jul-24 23:58 211 2 gusting 5 21.1
2017-Jul-24 23:49 211 0 21.1
2017-Jul-24 23:29 211 0 21.7
2017-Jul-24 23:08 211 21.7
2017-Jul-24 23:03 211 1 21.7
2017-Jul-24 21:49 200 3 gusting 4 22.8
2017-Jul-24 21:44 175 1 gusting 4 22.8
2017-Jul-24 21:38 175 2 gusting 4 22.8
2017-Jul-24 21:34 175 1 gusting 5 22.8
2017-Jul-24 21:28 178 3 gusting 5 22.8
2017-Jul-24 21:23 178 2 gusting 4 23.3
2017-Jul-24 21:19 173 0 gusting 4 23.3
2017-Jul-24 21:13 228 1 gusting 3 23.3
2017-Jul-24 21:08 229 0 gusting 3 23.3
2017-Jul-24 21:03 236 1 gusting 2 23.3
2017-Jul-24 20:58 236 0 gusting 4 23.3
2017-Jul-24 20:53 236 0 gusting 4 23.3
2017-Jul-24 20:49 235 0 gusting 4 23.3
2017-Jul-24 20:43 167 0 gusting 3 23.3
2017-Jul-24 20:38 167 23.3
2017-Jul-24 20:33 167 23.3
2017-Jul-24 20:29 167 23.3
2017-Jul-24 20:24 167 23.3
2017-Jul-24 20:18 167 23.3
2017-Jul-24 20:13 167 23.3
2017-Jul-24 20:09 167 1 gusting 3 23.3
2017-Jul-24 20:04 167 1 gusting 2 23.3
2017-Jul-24 19:58 185 23.3
2017-Jul-24 19:54 186 2 gusting 4 23.3
2017-Jul-24 19:48 186 2 gusting 5 23.3
2017-Jul-24 19:43 186 1 gusting 5 23.3
2017-Jul-24 19:39 167 2 gusting 6 23.9
2017-Jul-24 19:33 196 4 gusting 6 23.9
2017-Jul-24 19:28 185 2 gusting 5 23.9
2017-Jul-24 19:24 185 2 gusting 5 23.9
2017-Jul-24 19:19 185 3 gusting 5 23.9
2017-Jul-24 19:14 166 3 gusting 5 23.9
2017-Jul-24 19:09 154 2 gusting 4 23.9
2017-Jul-24 19:04 154 1 gusting 4 23.9
2017-Jul-24 18:58 154 1 gusting 4 23.9
2017-Jul-24 18:53 105 0 gusting 4 24.4
2017-Jul-24 18:44 105 1 gusting 5 24.4
2017-Jul-24 18:39 069 2 gusting 5 24.4
2017-Jul-24 18:33 066 1 gusting 5 25.0
2017-Jul-24 18:29 096 1 gusting 5 25.0
2017-Jul-24 18:24 005 284 gusting 284 25.0
2017-Jul-24 18:18 040 3 gusting 6 25.0
2017-Jul-24 18:13 061 4 gusting 6 25.0
2017-Jul-24 18:09 038 2 gusting 6 25.0
2017-Jul-24 18:03 055 0 gusting 6 25.0
2017-Jul-24 17:58 119 2 gusting 6 25.0
2017-Jul-24 17:49 205 2 gusting 6 25.0
2017-Jul-24 17:43 163 2 gusting 6 25.6
2017-Jul-24 17:38 109 5 gusting 6 25.6
2017-Jul-24 17:33 123 4 gusting 6 25.6
2017-Jul-24 17:29 110 1 gusting 6 25.6
2017-Jul-24 17:23 087 1 gusting 6 25.6
2017-Jul-24 17:19 005 25.6
2017-Jul-24 17:13 005 3 gusting 6 25.6
2017-Jul-24 17:09 020 2 gusting 7 25.6
2017-Jul-24 16:58 355 4 gusting 7 25.0
2017-Jul-24 16:53 032 3 gusting 6 25.0
2017-Jul-24 16:49 009 3 gusting 7 25.0
2017-Jul-24 16:44 051 2 gusting 7 25.0
2017-Jul-24 16:38 037 3 gusting 9 25.0
2017-Jul-24 16:33 005 6 gusting 13 25.0
2017-Jul-24 16:28 005 6 gusting 13 25.0
2017-Jul-24 16:23 327 7 gusting 16 25.0
2017-Jul-24 16:19 040 6 gusting 17 25.0
2017-Jul-24 16:13 360 8 gusting 19 25.0
2017-Jul-24 16:08 027 9 gusting 20 25.0
2017-Jul-24 16:03 005 13 gusting 21 25.0
2017-Jul-24 15:59 355 12 gusting 21 25.0
2017-Jul-24 15:53 360 10 gusting 24 25.0
2017-Jul-24 15:48 005 10 gusting 24 25.6
2017-Jul-24 15:44 029 284 gusting 284 25.6
2017-Jul-24 15:38 331 13 gusting 26 26.7
2017-Jul-24 15:34 005 16 gusting 27 27.8
2017-Jul-24 15:29 319 284 gusting 284 29.4
2017-Jul-24 15:23 221 10 gusting 19 30.6
2017-Jul-24 15:18 227 12 gusting 19 30.6
2017-Jul-24 15:08 236 11 gusting 22 30.6
2017-Jul-24 15:03 198 13 gusting 22 30.6
2017-Jul-24 14:59 214 12 gusting 21 30.6
2017-Jul-24 14:53 221 13 gusting 24 30.6
2017-Jul-24 14:49 238 10 gusting 24 30.6
2017-Jul-24 14:44 190 13 30.6
2017-Jul-24 14:38 209 16 gusting 24 30.6
2017-Jul-24 14:23 219 12 gusting 25 30.6
2017-Jul-24 14:18 213 17 gusting 25 30.6
2017-Jul-24 14:13 194 13 gusting 23 30.6
2017-Jul-24 14:09 199 14 gusting 23 30.6
2017-Jul-24 14:04 213 12 gusting 21 30.6
2017-Jul-24 13:58 233 12 gusting 23 31.1
2017-Jul-24 13:54 209 12 gusting 23 31.1
2017-Jul-24 13:48 221 12 gusting 23 31.1
2017-Jul-24 13:44 225 13 gusting 23 31.1
2017-Jul-24 13:39 219 10 gusting 19 31.7
2017-Jul-24 13:34 204 11 gusting 22 31.7
2017-Jul-24 13:28 221 12 gusting 22 31.7
2017-Jul-24 13:18 207 11 gusting 20 32.2
2017-Jul-24 13:04 234 6 gusting 19 32.8
2017-Jul-24 12:58 243 12 gusting 19 33.3
2017-Jul-24 12:53 140 9 gusting 19 33.9
2017-Jul-24 12:49 213 8 gusting 13 33.9
2017-Jul-24 12:43 185 6 gusting 19 33.3
2017-Jul-24 12:39 225 9 gusting 19 33.3
2017-Jul-24 12:33 209 11 gusting 18 33.3
2017-Jul-24 12:28 219 8 gusting 18 33.3
2017-Jul-24 12:24 203 7 gusting 18 32.8
2017-Jul-24 12:18 178 8 gusting 19 32.8
2017-Jul-24 12:14 188 12 gusting 19 32.8
2017-Jul-24 12:09 188 11 gusting 19 32.8
2017-Jul-24 12:03 188 9 gusting 19 32.8
2017-Jul-24 11:59 165 6 gusting 19 32.8
2017-Jul-24 11:53 219 8 gusting 15 32.8
2017-Jul-24 11:48 188 8 gusting 15 32.8
2017-Jul-24 11:43 223 6 gusting 17 32.8
2017-Jul-24 11:39 177 10 gusting 20 32.8
2017-Jul-24 11:33 197 11 gusting 20 33.3
2017-Jul-24 11:28 178 7 gusting 18 33.3
2017-Jul-24 11:23 226 6 gusting 13 32.8
2017-Jul-24 11:18 178 8 gusting 16 32.8
2017-Jul-24 11:13 239 8 gusting 16 32.8
2017-Jul-24 11:09 214 4 gusting 9 32.2
2017-Jul-24 11:03 219 5 gusting 10 32.2
2017-Jul-24 10:58 202 6 gusting 11 31.7
2017-Jul-24 10:54 231 6 gusting 11 31.7
2017-Jul-24 10:48 233 6 gusting 9 31.7
2017-Jul-24 10:44 259 4 gusting 8 31.7
2017-Jul-24 10:39 236 6 gusting 9 31.7
2017-Jul-24 10:33 226 6 gusting 12 31.7
2017-Jul-24 10:29 240 7 gusting 12 31.7
2017-Jul-24 10:23 234 6 gusting 11 31.7
2017-Jul-24 10:18 297 6 gusting 10 31.7
2017-Jul-24 10:08 208 6 gusting 9 31.1
2017-Jul-24 09:58 220 5 gusting 11 31.1
2017-Jul-24 09:54 232 6 gusting 13 31.1
2017-Jul-24 09:49 215 7 gusting 16 31.7
2017-Jul-24 09:43 209 6 gusting 16 31.1
2017-Jul-24 09:39 245 7 gusting 13 31.1
2017-Jul-24 09:33 232 5 gusting 13 31.1
2017-Jul-24 09:29 213 5 gusting 12 30.6
2017-Jul-24 09:23 200 6 gusting 13 30.6
2017-Jul-24 09:18 194 8 gusting 13 30.6
2017-Jul-24 09:14 218 6 gusting 13 30.6
2017-Jul-24 09:08 277 6 gusting 11 30.6
2017-Jul-24 09:04 209 6 gusting 11 30.6
2017-Jul-24 08:58 227 3 gusting 9 30.6
2017-Jul-24 08:53 176 4 gusting 6 30.0
2017-Jul-24 08:48 212 4 gusting 8 30.0
2017-Jul-24 08:39 180 0 gusting 9 30.0
2017-Jul-24 08:34 242 5 29.4
2017-Jul-24 08:28 231 5 gusting 8 29.4
2017-Jul-24 08:24 203 5 gusting 8 28.9
2017-Jul-24 08:18 248 6 gusting 8 28.9
2017-Jul-24 08:09 215 1 28.3
2017-Jul-24 08:04 215 27.8
2017-Jul-24 07:58 215 0 27.8
2017-Jul-24 07:53 307 27.8
2017-Jul-24 07:49 307 2 gusting 10 27.8
2017-Jul-24 07:38 209 0 gusting 4 27.2
2017-Jul-24 07:34 141 27.2
2017-Jul-24 07:28 141 0 gusting 4 27.2
2017-Jul-24 07:23 141 2 gusting 4 26.7
2017-Jul-24 07:18 161 2 gusting 4 26.7
2017-Jul-24 07:14 161 26.7
2017-Jul-24 07:08 161 3 gusting 6 26.7
2017-Jul-24 07:04 154 4 gusting 6 26.1
2017-Jul-24 06:58 168 2 gusting 5 26.1
2017-Jul-24 06:53 156 2 gusting 5 26.1
2017-Jul-24 06:49 150 3 gusting 5 26.1
2017-Jul-24 06:43 169 1 gusting 4 25.6
2017-Jul-24 06:39 170 0 gusting 5 25.6
2017-Jul-24 06:33 187 1 gusting 6 25.6
2017-Jul-24 06:19 146 0 gusting 3 25.0
2017-Jul-24 06:04 146 3 gusting 5 25.0